Simultaneous Nadir Overpasses (SNOs) Predictions

Prediction of SNOs between METOP-A and NOAA-19 Satellite Orbit:

Table of predicted SNOs for the next 14.0 days since TLE Epoch: 12/19/2016
Index Date (METOP-A) Time (METOP-A) Lat,Lon (METOP-A) SZA (METOP-A ) Date (NOAA-19) Time (NOAA-19) Lat,Lon (NOAA-19) SZA (NOAA-19 ) Distance(km) Time Diff (sec)
1 12/29/2016 17:39:14 76.85, -81.76 99.95 12/29/2016 17:38:01 76.85, -82.54 99.95 19.88 73
2 12/29/2016 18:29:58 -76.75, 85.21 80.15 12/29/2016 18:29:03 -76.74, 85.17 80.17 1.99 55
3 12/29/2016 19:20:38 76.74,-107.51 99.83 12/29/2016 19:20:00 76.73,-107.54 99.83 1.14 38
4 12/29/2016 20:11:20 -76.74, 59.80 80.18 12/29/2016 20:11:04 -76.70, 59.80 80.21 3.57 16
5 12/29/2016 21:02:00 76.72,-132.92 99.81 12/29/2016 21:02:01 76.70,-132.91 99.79 2.67 1
6
